Showing default

O3B MPOWER F10, 64867

Orbit data source: Space-Track

O3B MPOWER F10, 64867 is a payload satellite owned by O3B SES (LU) that was launched on Tue, 22 Jul 2025 UTC via an FALCON 9 launch vehicle from the Air Force Eastern Test Range (AFETR). Payload-class satellites include a variety of spacecraft equipped with specific instruments for various scientific and technological missions. These include communications satellites like Starlink; space stations such as the ISS; scientific satellites like the Hubble; Earth observation satellites from companies like Planet Labs, Umbra, and HawkEye 360; GPS; miniature CubeSats for education and research; and military/defense satellites.

Loading next visibility...
Identifier
64867, 2025-153B
Orbit
Active
Country
Flag of LULU / SES
Related business
Manufacturer
Boeing/ES
Mission
Operational Commercial Communications
Bus & Motor
702X, PPS5000
Mass
1,700 kg wet, 1,700 kg dry
Launch date (UTC)
2025-07-22 (11 months ago)
Launch vehicle
FALCON 9
Launch site
Air Force Eastern Test Range (AFETR)
Object type
Payload
Rocket body
Debris
Shape & HBR
Box + 2 Pan, 14.5 m
Radar Cross Section
27.396 m², Large (>1 m²)

Expand to show TLE details & history
Last TLE update: 12 hours ago

TLE from 12 hours ago
0 O3B MPOWER F10
1 64867U 25153B   26171.34012889 -.00000024  00000-0  00000+0 0  9995
2 64867   0.0567   5.4933 0001911 250.3426 104.1404  5.00114901 22198
Epoch: 2026-06-20T08:09Z
TLE epoch observation values (Epoch: 2026-06-20T08:09:47.136Z)
Latitude
-0.0055°
Longitude
-31.00259°
Altitude
8,065.058 km
Speed
5.254 km/s
True Right ascension
23h 59m 59s
True Declination
0° 00' 20"
Sunlit
Object was in daylight at epoch
Visualization orbit readout
Latitude
Unknown
Longitude
Unknown
Altitude
Unknown
Speed
Unknown
Apparent Right ascension
Unknown
Apparent Declination
Unknown
Sunlit
N/A
Visualization observer readout
Local Sidereal Time
07:20:55
Azimuth
Unknown
Elevation
Unknown
Doppler factor
Unknown
Orbital elements
Apogee altitude
8,071.721 km
Perigee altitude
8,066.199 km
Semi-major axis
14,447.097 km
Eccentricity
0.00019
Inclination
0.0567°
RAAN
5.4933°
Arg. of periapsis
250.3426°
True anomaly
104.16163°
Mean anomaly
104.1404°
Eccentric anomaly
104.15102°
Mean motion
1.24989 °/min
Orbital period
288.03 mins
BSTAR
0
Loading maneuver chart data...
Computing Atmospheric mass density...
Loading historical data...
Loading historical data...
Loading historical data...
Loading historical data...
Loading historical data...
Loading historical data...
Loading historical data...
Other satellites on launch #153 in the year 2025 (2025-07-22 UTC)

Documentation

Showing up to 5 results
|